Regional Weather Roundup
Issued by NWS

Home | Current Version | Previous Version | Graphics & Text | Print | Product List | Glossary On
Versions: 1 2 3 4 5 6 7 8 9 10 11 12 13 14 15 16 17 18 19 20 21 22 23 24 25 26 27 28 29 30 31 32 33 34 35 36 37 38 39 40 41 42 43 44 45 46 47 48 49 50
000
ASUS43 KOAX 231310
RWRNE

WEATHER ROUNDUP FOR NEBRASKA
NATIONAL WEATHER SERVICE OMAHA NE
800 AM CDT TUE SEP 23 2014

NOTES: SATELLITE DATA IS BEING USED TO AUGMENT CLOUD COVER ABOVE
       12000 FEET.
       "FAIR" INDICATES FEW OR NO CLOUDS BELOW 12,000 FEET WITH NO
       SIGNIFICANT WEATHER AND/OR OBSTRUCTIONS TO VISIBILITY.

  * THESE STATIONS DO NOT REPORT WEATHER SUCH AS RAIN...SNOW OR FOG.

NEZ001>004-019>022-054>056-231400-
NEBRASKA PANHANDLE

CITY           SKY/WX    TMP DP  RH WIND       PRES   REMARKS
SCOTTSBLUFF    CLEAR     50  47  89 N5        30.02R
ALLIANCE       PTCLDY    46  45  96 W6        29.98R
CHADRON        MOCLDY    57  50  77 SW7       29.94S
KIMBALL        PTCLDY    53  48  84 W10       30.06S
SIDNEY         PTCLDY    57  50  77 W13       30.05R
$$

NEZ057>060-069>072-079>082-231400-
SOUTHWEST NEBRASKA

CITY           SKY/WX    TMP DP  RH WIND       PRES   REMARKS
NORTH PLATTE   CLOUDY    55  54  96 E3        30.02S
IMPERIAL       CLOUDY    59  55  87 S12       30.03S
LEXINGTON      CLOUDY    57  55  95 SE10      30.05S
MCCOOK         PTCLDY    55  54  96 CALM      30.05R
OGALLALA       PTCLDY    56  55  96 SW3       30.01S
$$

NEZ005>010-023>029-035>040-094-231400-
NORTH CENTRAL NEBRASKA

CITY           SKY/WX    TMP DP  RH WIND       PRES   REMARKS
VALENTINE      CLOUDY    58  56  93 S7        29.96F
AINSWORTH      CLOUDY    56  54  92 S18       29.99S
BROKEN BOW     CLOUDY    57  54  89 S9        30.04S
O`NEILL        RAIN      57  56  99 SE15G21   30.06S
ORD            CLOUDY    56  54  93 SE12      30.06R
THEDFORD       CLOUDY    59  57  93 S14G21    30.01S
$$

NEZ041-046>049-061>064-073>077-083>087-231400-
SOUTH CENTRAL NEBRASKA

CITY           SKY/WX    TMP DP  RH WIND       PRES   REMARKS
GRAND ISLAND   CLOUDY    57  54  89 SE8       30.11S
AURORA         LGT RAIN  56  56  99 SE9       30.11F
HASTINGS       CLOUDY    56  53  90 SE10      30.09F
HEBRON         CLOUDY    58  54  86 S6        30.13F
HOLDREGE       MOCLDY    54  53  95 CALM      30.07R
KEARNEY *      CLOUDY    55  54  94 SE10      30.08S
YORK           RAIN      55  55 100 S9        30.14F
$$

NEZ011>018-030>034-042>045-231400-
NORTHEAST NEBRASKA

CITY           SKY/WX    TMP DP  RH WIND       PRES   REMARKS
NORFOLK        LGT RAIN  57  54  89 S16       30.13S FOG
ALBION         LGT RAIN  56  54  94 SE14      30.10F
BLAIR          CLOUDY    61  53  74 SE8       30.17S
COLUMBUS *     CLOUDY    55  54  94 S6        30.16S
FREMONT        LGT RAIN  60  53  78 SE7       30.16F
TEKAMAH        CLOUDY    59  55  87 SE6       30.17R
WAYNE          LGT RAIN  57  55  93 SE10      30.14S
$$

NEZ050>053-065>068-078-088>093-231400-
SOUTHEAST NEBRASKA

CITY           SKY/WX    TMP DP  RH WIND       PRES   REMARKS
LINCOLN        LGT RAIN  61  53  75 SW8       30.18R
OMAHA EPPLEY   CLOUDY    61  52  72 SE10      30.18S
BEATRICE       LGT RAIN  59  53  81 S8        30.15R
FALLS CITY     CLOUDY    56  53  90 SE5       30.20F
NEBRASKA CITY    N/A     57  49  75 SE8       30.19F
PLATTSMOUTH    CLOUDY    58  53  84 SE9       30.18F
$$

NEZ044-045-051>053-067-231400-
OMAHA AREA

CITY           SKY/WX    TMP DP  RH WIND       PRES   REMARKS
OMAHA EPPLEY   CLOUDY    61  52  72 SE10      30.18S
BLAIR          CLOUDY    61  53  74 SE8       30.17S
FREMONT        LGT RAIN  60  53  78 SE7       30.16F
MILLARD        CLOUDY    61  54  78 SE7       30.17F
OFFUTT AFB     CLOUDY    58  58  99 SE10      30.18S
PLATTSMOUTH    CLOUDY    58  53  84 SE9       30.18F
WAHOO          CLOUDY    58  54  86 SE3       30.15F
$$


USA.gov is the U.S. government's official web portal to all federal, state and local government web resources and services.